Regional Weather Roundup
Issued by NWS

Home | Current Version | Previous Version | Graphics & Text | Print | Product List | Glossary On
Versions: 1 2 3 4 5 6 7 8 9 10 11 12 13 14 15 16 17 18 19 20 21 22 23 24 25 26 27 28 29 30 31 32 33 34 35 36 37 38 39 40 41 42 43 44 45 46 47 48 49 50
000
ASUS43 KMPX 032301
RWRMN
WEATHER ROUNDUP FOR MINNESOTA
NATIONAL WEATHER SERVICE TWIN CITIES/CHANHASSEN MN
600 PM CDT MON AUG 03 2015


NOTE: "FAIR" INDICATES FEW OR NO CLOUDS BELOW 12,000 FEET WITH NO
SIGNIFICANT WEATHER AND/OR OBSTRUCTIONS TO VISIBILITY. N/A MEANS
CURRENT SKY AND/OR WEATHER CONDITIONS ARE NOT AVAILABLE.

MNZ060>063-068>070-040000-
   Twin Cities Metro

CITY           SKY/WX    TMP DP  RH WIND       PRES   REMARKS
TWIN CITIES    MOSUNNY   77  49  37 W9        29.89S
ST PAUL        MOSUNNY   78  49  35 W14       29.88F
CRYSTAL        MOSUNNY   79  49  34 W9        29.88S
BLAINE         PTSUNNY   79  52  38 MISG      29.89S
LAKEVILLE      SUNNY     75  50  41 W10G17    29.90S
EDEN PRAIRIE   MOSUNNY   79  50  36 W12       29.89S
SOUTH ST PAUL  MOSUNNY   79  47  32 NW9       29.89S
LAKE ELMO      FAIR      73  52  46 NW7       29.90S
$$
MNZ001>005-007-008-013>017-022>024-027-028-040000-
   Northwest Minnesota

CITY           SKY/WX    TMP DP  RH WIND       PRES   REMARKS
BEMIDJI        MOSUNNY   72  49  44 NW14G22   29.92R
HALLOCK        SUNNY     75  43  31 NW14      29.90S
ROSEAU         CLOUDY    70  54  56 NW10      29.90S
WARROAD        MOSUNNY   70  54  56 W8        29.89S
THIEF RVR FALL PTSUNNY   73  46  38 NW15G25   29.92F
CROOKSTON      SUNNY     75  48  38 N13       29.92F
FOSSTON        MOSUNNY   75  45  33 NW15G23   29.93F
DETROIT LAKES  SUNNY     73  46  38 NW14G21   29.95S
MOORHEAD       SUNNY     75  48  38 NW10      29.93S
PARK RAPIDS    MOSUNNY   72  49  44 NW15G23   29.92R
MAHNOMEN       FAIR      72  49  44 NW12      29.93S
$$
MNZ006-009>011-018-025>026-040000-
   North Central Minnesota

CITY           SKY/WX    TMP DP  RH WIND       PRES   REMARKS
BAUDETTE       PTSUNNY   69  52  54 NW13      29.88F
FLAG ISLAND    MOSUNNY   68  52  56 NW15      29.86F
INTL FALLS     CLOUDY    62  53  72 NW17G23   29.87R
WASKISH        MOSUNNY   70  54  56 W10       29.90S
BIG FORK       PTSUNNY   64  52  63 NW6       29.90S
LONGVILLE      MOSUNNY   72  54  53 NW7       29.90F
GRAND RAPIDS   CLOUDY    66  52  59 NW18      29.90R
CRANE LAKE     CLOUDY    57  55  94 NW1       29.87S
ORR            PTSUNNY   61  55  82 NW7       29.85S
COOK           CLOUDY    63  55  77 NW7       29.88R
WALKER         MOCLDY    71  51  48 W13       29.91R
$$
MNZ012-019>021-037-040000-
   Northeast Minnesota

CITY           SKY/WX    TMP DP  RH WIND       PRES   REMARKS
DULUTH         PTSUNNY   69  53  56 NW13G22   29.86S
ELY            CLOUDY    59  57  94 W6        29.86R
HIBBING        CLOUDY    67  52  58 NW16      29.88R
EVELETH        MOSUNNY   64  50  59 W13G22    29.88S
DULUTH HARBOR  PTSUNNY   72  57  60 W13       29.85S
TWO HARBORS    PTSUNNY   72  57  60 W9        29.83R
SILVER BAY     PTSUNNY   64  57  77 NW7       29.83S
GRAND MARAIS     N/A     71  53  52 VRB5      29.77R
G MARAIS ARPRT CLOUDY    64  48  55 W9G18     29.81S
$$
MNZ029>031-032-039>041-046>048-054>057-064-040000-
   West Central Minnesota

CITY           SKY/WX    TMP DP  RH WIND       PRES   REMARKS
FERGUS FALLS   SUNNY     75  48  38 N14       29.92S
WHEATON        SUNNY     75  50  41 NW6       29.96R
MORRIS         SUNNY     77  50  38 NW14      29.93S
ALEXANDRIA     SUNNY     76  46  34 NW15G22   29.95S
ELBOW LAKE     FAIR      75  49  39 NW13      29.93S
WADENA         MOSUNNY   73  52  46 NW12      29.92S
GLENWOOD       SUNNY     75  48  38 NW12      29.94S
APPLETON       SUNNY     79  46  31 NW12      29.93S
BENSON         SUNNY     79  50  36 N10       29.93S
ORTONVILLE     SUNNY     79  52  38 N8        29.94S
MADISON        SUNNY     79  52  38 N10       29.94S
WILLMAR        FAIR      79  54  41 NW13      29.94S
$$
MNZ033>034-036-042>043-049>051-058-059-040000-
   Central Minnesota

CITY           SKY/WX    TMP DP  RH WIND       PRES   REMARKS
ST CLOUD       PTSUNNY   78  51  38 NW12      29.89F
SAUK CENTRE    FAIR      76  50  39 NW9G17    29.93S
PAYNESVILLE    SUNNY     74  49  41 W9G20     29.93S
AITKIN         PTSUNNY   72  54  53 NW8       29.89S
PINE RIVER     MOSUNNY   72  54  53 NW12G20   29.94S
BRAINERD       CLOUDY    73  50  44 NW10      29.90S
STAPLES        MOSUNNY   73  48  40 NW13      29.91S
LONG PRAIRIE   FAIR      73  48  40 W10       29.93S
LITTLE FALLS     N/A     75  45  33 NW12      29.91S
LITCHFIELD     SUNNY     77  52  41 NW12      29.92F
BUFFALO        PTSUNNY   77  51  39 W14       29.91S
MAPLE LAKE     SUNNY     75  55  50 W7        29.91S
$$
MNZ037-044-045-052-053-040000-
   East Central Minnesota

CITY           SKY/WX    TMP DP  RH WIND       PRES   REMARKS
PRINCETON      MOSUNNY   79  52  38 W9G17     29.89S
MORA           MOSUNNY   72  52  49 NW9       29.90S
CAMBRIDGE      MOSUNNY   79  55  44 W8        29.87S
RUSH CITY      CLOUDY    75  53  46 NW5       29.88F
MOOSE LAKE     CLOUDY    70  52  52 NW10      29.86S
HINCKLEY       CLOUDY    72  54  53 NW7       29.88S
CLOQUET        PTSUNNY   70  52  52 NW13G18   29.87S
MCGREGOR       CLOUDY    70  52  52 NW9G16    29.90R
$$
MNZ071>073-080-081-089-090-097-098-040000-
   Southwest Minnesota

CITY           SKY/WX    TMP DP  RH WIND       PRES   REMARKS
MONTEVIDEO     SUNNY     82  54  36 N10       29.95F
GRANITE FALLS  SUNNY     78  50  38 NW10      29.95S
CANBY          SUNNY     79  51  38 NW8       29.95S
MARSHALL       SUNNY     79  52  38 NW7       29.96S
REDWOOD FALLS  SUNNY     80  51  36 NW10G20   29.93S
OLIVIA         SUNNY     73  50  43 NW12      29.93S
PIPESTONE      MOSUNNY   79  54  41 NW9       29.97F
WINDOM         SUNNY     79  54  41 NW10G17   29.95S
WORTHINGTON    MOSUNNY   75  54  46 NW7       29.96F
JACKSON        MOSUNNY   79  54  41 W8        29.96S
TRACY          MOSUNNY   79  57  47 NW6       29.95S
SLAYTON        MOSUNNY   79  55  44 CALM      29.97F
$$
MNZ065>067-074>077-082>085-091>093-040000-
   South Central Minnesota

CITY           SKY/WX    TMP DP  RH WIND       PRES   REMARKS
MANKATO        SUNNY     77  50  38 NW14      29.93R
NEW ULM        SUNNY     79  48  34 NW12G17   29.93S
FAIRMONT       SUNNY     79  52  38 NW13      29.94S
GLENCOE        SUNNY     77  54  44 W8G16     29.92S
FARIBAULT      SUNNY     75  52  43 NW8       29.92S
OWATONNA       SUNNY     75  48  38 NW10      29.93S
WASECA         SUNNY     73  52  46 NW9       29.94S
ALBERT LEA     SUNNY     75  50  41 W8        29.93S
$$
MNZ078>079-086>088-094>096-040000-
   Southeast Minnesota

CITY           SKY/WX    TMP DP  RH WIND       PRES   REMARKS
ROCHESTER      SUNNY     74  51  44 NW14      29.93R
RED WING       PTSUNNY   79  46  31 NW7       29.88S
STANTON        MOSUNNY   77  53  42 W6        29.90S
DODGE CENTER   SUNNY     73  48  40 W12       29.93S
WINONA         MOSUNNY   77  50  38 NW10      29.89S
AUSTIN         SUNNY     77  52  41 W12       29.93S
PRESTON        SUNNY     74  51  44 W15       29.92F
$$
ABBREVIATIONS USED IN REMARKS
   TC - TEMPERATURES IN CELSIUS
  WCI - WIND CHILL INDEX
   HX - HEAT INDEX
  VSB - VISIBILITY
$$



USA.gov is the U.S. government's official web portal to all federal, state and local government web resources and services.